Humidity-temperature Sensor

Selected Measurement Type: Relative Humidity

 
Relative Humidity [%]     6 entries per hour
Showing data from 4/7/2015 (00:00:00 Z) to 4/6/2015 (00:01:00 Z)
Previous Next [ Day | 3-Days | 7-Days ]
First Last
Prev [ Day | 3-Days | 7-Days ] Next
First Last

Start Time:     :
End Time:     :     
Time (in GMT) :00 :50 :40 :30 :20 :10
Previous Next [ Day | 3-Days | 7-Days ]
First Last
Prev [ Day | 3-Days | 7-Days ] Next
First Last


123 => good data
MM => data is determined as missing
-- => data not received/configured
Back to Top Back to Top
4/7/2015 00:00 to 23:10 83.26 83.34 84.58 83.63 84.40 83.91
4/6/2015 23:00 to 22:10 84.53 84.84 85.31 85.23 86.07 86.16
4/6/2015 22:00 to 21:10 86.16 85.42 86.44 86.20 85.14 84.23
4/6/2015 21:00 to 20:10 85.38 84.45 85.70 84.56 84.79 84.75
4/6/2015 20:00 to 19:10 85.70 84.38 84.69 83.99 83.45 83.69
4/6/2015 19:00 to 18:10 83.69 84.64 84.69 83.13 82.91 83.02
4/6/2015 18:00 to 17:10 83.45 84.60 82.65 83.99 85.59 84.86
4/6/2015 17:00 to 16:10 84.79 85.01 83.91 85.03 83.78 85.21
4/6/2015 16:00 to 15:10 85.14 86.11 85.21 85.94 86.09 87.11
4/6/2015 15:00 to 14:10 86.42 86.44 88.67 87.13 86.55 85.18
4/6/2015 14:00 to 13:10 87.20 85.72 88.00 87.54 88.02 86.63
4/6/2015 13:00 to 12:10 87.26 86.16 84.97 86.63 85.96 86.59
4/6/2015 12:00 to 11:10 85.85 86.33 85.77 85.59 85.44 85.08
4/6/2015 11:00 to 10:10 83.24 82.91 84.77 83.19 83.37 83.99
4/6/2015 10:00 to 9:10 86.48 86.11 85.08 84.92 86.44 84.17
4/6/2015 09:00 to 8:10 84.25 83.97 89.47 87.28 87.74 87.82
4/6/2015 08:00 to 7:10 87.95 87.07 85.53 84.95 83.86 82.30
4/6/2015 07:00 to 6:10 89.62 89.32 88.32 89.99 93.54 92.43
4/6/2015 06:00 to 5:10 87.13 85.81 86.03 84.84 82.76 82.30
4/6/2015 05:00 to 4:10 90.77 90.25 93.84 93.86 85.64 85.23
4/6/2015 04:00 to 3:10 85.85 86.33 87.41 87.65 87.54 87.07
4/6/2015 03:00 to 2:10 86.03 87.37 87.00 87.98 86.92 87.13
4/6/2015 02:00 to 1:10 88.45 89.90 93.02 93.99 87.04 84.36
4/6/2015 01:00 to 0:10 83.54 84.49 85.16 85.21 84.73 84.21